Regional Weather Roundup
Issued by NWS Sterling, VA

Home | Current Version | Previous Version | Text Only | Print | Product List | Glossary Off
Versions: 1 2 3 4 5 6 7 8 9 10 11 12 13 14 15 16 17 18 19 20 21 22 23 24 25 26 27 28 29 30 31 32 33 34 35 36 37 38 39 40 41 42 43 44 45 46 47 48 49 50

000
ASUS41 KLWX 280711
RWRLWX

REGIONAL WEATHER ROUNDUP
NATIONAL WEATHER SERVICE BALTIMORE MD/WASHINGTON DC
300 AM EDT WED JUN 28 2017

Note: "FAIR" indicates few or no clouds below 12,000 feet
with no significant weather and/or obstructions to visibility.
 TC=TEMPERATURE CELSIUS

 * =Non NWS site. Station does not report precipitation (e.g. rain,
    snow, etc.), thunder, or fog.

DCZ001-MDZ009-015-VAZ040>042-051-053>054-280800-
WASHINGTON METRO

CITY           SKY/WX    TMP DP  RH WIND       PRES   REMARKS
WASHINGTON NAT PTCLDY    65  50  58 NW5       30.12R
DULLES         CLEAR     54  47  77 CALM      30.12R
ANDREWS AFB    CLEAR     58  49  72 CALM      30.11R
FT BELVOIR     CLEAR     55  50  82 CALM      30.11S
QUANTICO       PTCLDY    60  54  80 NW9       30.12S
COLLEGE PARK*  CLEAR     55  49  83 CALM      30.11S
LEESBURG*      CLEAR     61  52  72 NW3       30.13S
MANASSAS*      CLEAR     53  50  89 CALM      30.13R
GAITHERSBURG*  CLEAR     54  48  80 CALM      30.13R

$$

MDZ006>007-011-014-280800-
BALTIMORE METRO

CITY           SKY/WX    TMP DP  RH WIND       PRES   REMARKS
BWI AIRPORT    CLEAR     54  50  86 W5        30.11R
MD SCIENCE CTR   N/A     66  48  52 MISG      30.11S
MARTIN STATE   PTCLDY    59  50  72 CALM      30.12R
ANNAPOLIS      CLEAR     61  53  75 W5        30.10R
FORT MEADE*    CLEAR     52  50  93 CALM      30.14R

$$

MDZ012-015-019>023-280800-
MARYLAND EASTERN SHORE

CITY           SKY/WX    TMP DP  RH WIND       PRES   REMARKS
OCEAN CITY     CLEAR     62  53  72 N9        30.08R
SALISBURY      CLEAR     62  53  72 NW6       30.09R
BAY BRIDGE AP* CLEAR     68  52  56 NW8       30.10S
CAMBRIDGE*     CLEAR     66  50  55 N7        30.10R
EASTON*        CLEAR     64  51  62 CALM      30.14R

$$

MDZ017>025-280800-
SOUTHERN MARYLAND

CITY           SKY/WX    TMP DP  RH WIND       PRES   REMARKS
PATUXENT RIVER CLEAR     68  50  52 N10       30.10R
ST INIGOES     CLEAR     64  53  67 CALM      30.09R
LEONARDTOWN*   CLEAR     59  50  72 CALM      30.12S

$$

MDZ003>005-280800-
NORTH CENTRAL MARYLAND

CITY           SKY/WX    TMP DP  RH WIND       PRES   REMARKS
FREDERICK*     CLEAR     54  52  94 CALM      30.15R
HAGERSTOWN APT CLEAR     61  48  62 CALM      30.12S
WESTMINSTER*   CLEAR     61  48  63 CALM      30.12S

$$

MDZ501>502-280800-
WESTERN MARYLAND

CITY           SKY/WX    TMP DP  RH WIND       PRES   REMARKS
OAKLAND*       NOT AVBL
CUMBERLAND*    CLEAR     52  52 100 CALM      30.19R

$$

VAZ025>031-280800-
SHENANDOAH VALLEY

CITY           SKY/WX    TMP DP  RH WIND       PRES   REMARKS
WINCHESTER*    CLEAR     50  46  87 CALM      30.13S
FRONT ROYAL*   CLEAR     55  48  76 SW3       30.13S
LURAY*         CLEAR     52  50  93 CALM      30.15R
NEW MARKET*    CLEAR     49  47  91 CALM      30.15S
STAUNTON*      CLEAR     50  46  85 CALM      30.17S
WAYNESBORO*    CLEAR     51  50  96 W7        30.16S

$$

WVZ021-048>050-054>055-280800-
EASTERN WEST VIRGINIA PANHANDLE

CITY           SKY/WX    TMP DP  RH WIND       PRES   REMARKS
MARTINSBURG    CLEAR     52  47  83 CALM      30.12S
PETERSBURG*    CLEAR     50  49  96 CALM      30.17S

$$

VAZ036>039-050-280800-
CENTRAL FOOTHILLS

CITY           SKY/WX    TMP DP  RH WIND       PRES   REMARKS
CHARLOTTESVILL CLEAR     58  50  75 CALM      30.13R
CULPEPER*      CLEAR     52  51  95 CALM      30.13S
ORANGE*        PTCLDY    52  50  93 CALM      30.13S
GORDONSVILLE*  PTCLDY    53  51  94 CALM      30.12S
WARRENTON*     CLEAR     50  46  85 CALM      30.12S

$$

VAZ055>057-280800-
NORTH AND CENTRAL PIEDMONT

CITY           SKY/WX    TMP DP  RH WIND       PRES   REMARKS
FREDERICKSBRG* CLEAR     58  52  79 CALM      30.11S
STAFFORD*      CLEAR     51  51 100 NW3       30.16S

$$

NCZ024-NYZ072-PAZ021-071-VAZ022-071-280800-
OTHER REGIONAL OBSERVATIONS

CITY           SKY/WX    TMP DP  RH WIND       PRES   REMARKS
NEW YORK CITY  CLEAR     63  50  62 NW5       30.07R
PHILADELPHIA   CLEAR     65  48  54 NW8       30.09R
PITTSBURGH     CLEAR     51  48  89 CALM      30.13R
ROANOKE        CLEAR     55  49  80 NW3       30.18S
RICHMOND       CLEAR     61  53  75 N6        30.11R
RALEIGH        CLEAR     58  56  93 CALM      30.13R

$$

ANZ530>537-280800-
MARINE OBSERVATIONS

STATION/POSITION TIME  TEMP    WIND        PRES
                       AIR SEA DIR/SP/G
                 (UTC) (F)     (DEG/KT/KT) (MB)
THOMAS PT LIGHT  0700   68 76  330/ 10/ 12   N/A
BALT KEY BRIDGE  0642          300/  8/ 11   N/A
COVE POINT       0642           10/ 11/ 18   N/A
LEWISETTA        0642           10/  6/  9   N/A
SOLOMONS ISLAND  0642          340/  8/  9   N/A
PINEY POINT      0642           20/  9/ 10   N/A

$$




USA.gov is the U.S. government's official web portal to all federal, state and local government web resources and services.